Flag for Switzerland Weather past 2 weeks in Illnau-Effretikon, Zurich, Switzerland

Now
47 °F

Cool.


Feels Like: 40 °F
Forecast: 47 / 51 °F
Wind: 15 mph from Southwest

Location: Zurich Town / Ville.

Current Time: Mar 29, 2015 at 6:30:46 AM

Latest Report: Mar 29, 2015 at 5:00 AM


Visibility: N/A

Pressure: 30.06 "Hg

Humidity: 84%

Dew point: 42 °F

Location of Illnau-EffretikonLocation

Historic Weather in Illnau-Effretikon — Graph

°F

Illnau-Effretikon temperature yesterday

Maximum temperature yesterday: 56 °F (at 3:00 PM)
Minimum temperature yesterday: 36 °F (at 7:00 AM)
Average temperature yesterday: 45 °F

Past Weeks' High & Low Weather Summary

 TemperatureHumidityPressure
High62 °F (Mar 18, 2:40 PM)97% (Mar 22, 1:00 AM)30.31 "Hg (Mar 22, 1:00 AM)
Low30 °F (Mar 14, 6:00 AM)34% (Mar 24, 5:00 PM)29.59 "Hg (Mar 25, 2:00 PM)
Average45 °F70%30.06 "Hg
* Reported Mar 14 3:00 AM — Mar 29 4:00 AM, Illnau-Effretikon, Weather by CustomWeather, © 2015

Note: Actual official high and low records may vary slightly from our data, if they occured in-between our weather recording intervals... More about our weather records

Advertising

Illnau-Effretikon weather history for previous 24 hours

 ConditionsComfort  
Time TempWeatherWind HumidityBarometerVisibility
4:00 AM
Sun, Mar 29
45 °FCool.10 mph85%30.09 "HgN/A
3:00 AM44 °FQuite cool.3 mph88%30.10 "HgN/A
1:00 AM45 °FQuite cool.3 mph86%30.11 "HgN/A
12:00 AM44 °FQuite cool.3 mph83%30.12 "HgN/A
11:00 PM
Sat, Mar 28
44 °FQuite cool.5 mph89%30.14 "HgN/A
9:00 PM47 °FCool.10 mph68%30.15 "HgN/A
8:00 PM47 °FCool.7 mph61%30.14 "HgN/A
7:00 PM47 °FOvercast.10 mph64%30.14 "HgN/A
6:00 PM48 °FCool.12 mph58%30.13 "HgN/A
5:00 PM49 °FCool.15 mph57%30.12 "HgN/A
4:00 PM54 °FCool.10 mph35%30.07 "HgN/A
3:00 PM56 °FRefreshingly cool.9 mph37%30.08 "HgN/A
2:00 PM54 °FCool.7 mph43%30.11 "HgN/A
1:00 PM51 °FPassing clouds.6 mph49%30.15 "HgN/A
12:00 PM49 °FCool.3 mph49%30.18 "HgN/A
11:00 AM48 °FCool.3 mph51%30.20 "HgN/A
10:00 AM44 °FQuite cool.2 mph65%30.24 "HgN/A
9:00 AM41 °FQuite cool.2 mph72%30.26 "HgN/A
8:00 AM38 °FChilly.1 mph77%30.29 "HgN/A
7:00 AM36 °FSunny.No wind84%30.31 "HgN/A
6:00 AM36 °FChilly.1 mph81%30.30 "HgN/A
Weather by CustomWeather, © 2015

See weather overviewHow to use our weather pages